Date,TemperatureHighF,TemperatureAvgF,TemperatureLowF,DewpointHighF,DewpointAvgF,DewpointLowF,HumidityHigh,HumidityAvg,HumidityLow,PressureMaxIn,PressureMinIn,WindSpeedMaxMPH,WindSpeedAvgMPH,GustSpeedMaxMPH,PrecipitationSumIn
2013-1-1,25.0,9.2,-11.0,7.0,0.1,-16.0,91,68,42,0.00,40.00,11,6,17,0.00
2013-1-2,27.0,16.9,3.0,9.0,5.0,-2.0,82,60,42,0.00,40.00,15,9,22,0.00
2013-1-3,33.0,15.9,-2.0,4.0,-1.9,-9.0,73,48,18,0.00,40.00,17,6,22,0.00
2013-1-4,43.0,13.1,-7.0,6.0,-4.4,-13.0,80,52,16,0.00,40.00,8,2,11,0.00
2013-1-5,38.0,16.8,-4.0,8.0,0.3,-10.0,77,52,24,0.00,40.00,10,3,14,0.00
2013-1-6,33.0,20.7,11.0,8.0,3.3,0.0,69,49,25,0.00,40.00,9,2,14,0.00
2013-1-7,36.0,23.6,9.0,21.0,8.1,-3.0,87,53,31,0.00,40.00,10,5,14,0.00
2013-1-8,38.0,25.2,10.0,27.0,20.8,8.0,96,84,61,0.00,40.00,11,4,17,0.00
2013-1-9,40.0,24.4,3.0,28.0,16.4,-1.0,96,73,50,0.00,40.00,19,8,30,0.00
2013-1-10,36.0,19.0,6.0,22.0,13.6,1.0,92,79,55,0.00,40.00,14,9,30,0.00
2013-1-11,13.0,4.5,-15.0,5.0,-0.8,-20.0,88,79,56,0.00,40.00,12,5,22,0.00
2013-1-12,8.0,-7.1,-23.0,1.0,-13.3,-31.0,87,74,57,0.00,40.00,8,2,15,0.00
2013-1-13,5.0,-7.1,-26.0,-3.0,-13.1,-32.0,86,74,63,0.00,40.00,13,6,20,0.00
2013-1-14,5.0,-6.3,-26.0,-4.0,-12.7,-32.0,84,73,64,0.00,40.00,13,6,20,0.00
2013-1-15,23.0,13.3,4.0,13.0,7.6,-2.0,91,78,66,0.00,40.00,11,6,18,0.00
2013-1-16,33.0,23.2,15.0,14.0,10.1,5.0,89,60,34,0.00,40.00,15,10,23,0.00
2013-1-17,38.0,23.8,14.0,10.0,5.2,3.0,67,46,28,0.00,40.00,13,8,19,0.00
2013-1-18,41.0,16.4,4.0,7.0,1.7,-3.0,74,55,23,0.00,40.00,8,4,12,0.00
2013-1-19,33.0,15.5,5.0,7.0,1.6,-3.0,70,54,29,0.00,40.00,8,5,10,0.00
2013-1-20,43.0,26.6,7.0,6.0,1.8,-5.0,70,38,13,0.00,40.00,12,7,17,0.00
2013-1-21,46.0,27.3,10.0,13.0,6.8,1.0,82,45,22,0.00,40.00,12,5,17,0.00
2013-1-22,49.0,25.6,5.0,18.0,6.7,1.0,87,54,14,0.00,40.00,13,3,20,0.00
2013-1-23,39.0,26.7,12.0,23.0,12.7,4.0,78,57,31,0.00,40.00,6,1,13,0.00
2013-1-24,38.0,33.5,32.0,33.0,29.0,20.0,97,85,50,0.00,40.00,11,4,22,0.00
2013-1-25,36.0,32.6,31.0,35.0,31.7,30.0,97,97,95,0.00,40.00,11,3,16,0.00
2013-1-26,36.0,33.0,31.0,35.0,31.9,30.0,98,96,85,0.00,40.00,10,3,19,0.00
2013-1-27,34.0,26.1,13.0,33.0,24.3,6.0,97,92,77,0.00,40.00,21,10,38,0.00
2013-1-28,19.0,7.7,-15.0,12.0,1.8,-20.0,93,77,58,0.00,40.00,11,3,18,0.00
2013-1-29,25.0,19.5,10.0,21.0,16.1,8.0,94,87,76,0.00,40.00,19,7,32,0.00
2013-1-30,35.0,26.7,6.0,27.0,21.6,4.0,96,81,64,0.00,40.00,13,6,23,0.00
2013-1-31,42.0,28.5,11.0,27.0,21.6,9.0,94,77,49,0.00,40.00,10,3,15,0.00
2013-2-1,44.0,24.2,7.0,28.0,11.3,5.0,96,65,21,0.00,40.00,6,2,11,0.00
2013-2-2,45.0,28.0,12.0,23.0,16.6,9.0,91,66,27,0.00,40.00,5,2,8,0.00
2013-2-3,44.0,30.2,18.0,20.0,17.1,11.0,84,62,28,0.00,40.00,10,3,18,0.00
2013-2-4,46.0,25.5,9.0,15.0,8.3,2.0,93,58,17,0.00,40.00,6,2,12,0.00
2013-2-5,47.0,32.0,12.0,19.0,12.1,7.0,82,48,22,0.00,40.00,13,4,21,0.00
2013-2-6,37.0,27.2,8.0,18.0,13.0,4.0,88,57,33,0.00,40.00,9,4,16,0.00
2013-2-7,40.0,25.0,4.0,17.0,9.7,0.0,89,56,30,0.00,40.00,20,8,37,0.00
2013-2-8,31.0,24.2,19.0,25.0,19.9,17.0,95,84,55,0.00,40.00,12,6,23,0.00
2013-2-9,22.0,17.8,13.0,18.0,14.4,9.0,93,86,75,0.00,40.00,14,7,25,0.00
2013-2-10,21.0,15.8,6.0,17.0,12.3,3.0,90,86,78,0.00,40.00,15,7,23,0.00
2013-2-11,20.0,7.8,-9.0,6.0,-0.1,-12.0,90,72,45,0.00,40.00,16,6,24,0.00
2013-2-12,29.0,14.5,-9.0,17.0,7.3,-13.0,93,74,55,0.00,40.00,9,4,13,0.00
2013-2-13,38.0,23.4,6.0,23.0,16.0,3.0,92,75,49,0.00,40.00,10,4,15,0.00
2013-2-14,34.0,21.5,5.0,22.0,15.1,2.0,96,78,51,0.00,40.00,11,4,17,0.00
2013-2-15,42.0,23.6,7.0,20.0,12.9,4.0,93,67,35,0.00,40.00,13,5,22,0.00
2013-2-16,48.0,26.9,1.0,21.0,8.4,-3.0,93,54,13,0.00,40.00,13,4,20,0.00
2013-2-17,36.0,26.8,6.0,16.0,10.3,1.0,87,51,35,0.00,40.00,13,5,22,0.00
2013-2-18,39.0,22.5,-1.0,15.0,4.2,-9.0,88,51,16,0.00,40.00,13,5,20,0.00
2013-2-19,37.0,30.3,25.0,24.0,14.5,8.0,93,53,35,0.00,40.00,17,9,31,0.00
2013-2-20,27.0,22.2,6.0,23.0,17.9,-1.0,94,83,66,0.00,40.00,17,8,26,0.00
2013-2-21,24.0,12.7,-2.0,7.0,2.1,-6.0,89,65,35,0.00,40.00,12,6,22,0.00
2013-2-22,29.0,19.0,-2.0,16.0,9.4,-5.0,91,67,48,0.00,40.00,11,5,19,0.00
2013-2-23,29.0,19.9,14.0,16.0,10.0,2.0,90,66,47,0.00,40.00,17,9,30,0.00
2013-2-24,23.0,14.3,-3.0,11.0,5.7,-6.0,89,70,40,0.00,40.00,16,8,25,0.00
2013-2-25,39.0,21.2,-4.0,19.0,4.2,-13.0,92,55,17,0.00,40.00,21,7,31,0.00
2013-2-26,25.0,15.6,0.0,12.0,6.0,-4.0,90,68,34,0.00,40.00,13,6,21,0.00
2013-2-27,34.0,18.0,0.0,9.0,2.9,-10.0,85,57,17,0.00,40.00,10,4,16,0.00
2013-2-28,41.0,23.7,4.0,17.0,9.2,-1.0,87,59,28,0.00,40.00,12,3,34,0.00
2013-3-1,50.0,31.8,15.0,27.0,21.0,12.0,93,68,36,0.00,40.00,7,2,11,0.00
2013-3-2,50.0,35.8,17.0,27.0,21.8,15.0,94,61,33,0.00,40.00,13,5,23,0.00
2013-3-3,43.0,35.8,27.0,31.0,26.0,18.0,94,70,37,0.00,40.00,11,4,17,0.00
2013-3-4,40.0,29.3,16.0,28.0,18.2,12.0,91,65,37,0.00,40.00,11,3,17,0.00
2013-3-5,47.0,31.4,12.0,22.0,15.6,9.0,90,57,28,0.00,40.00,20,8,36,0.00
2013-3-6,47.0,36.7,29.0,27.0,21.7,10.0,82,58,22,0.00,40.00,22,12,40,0.00
2013-3-7,38.0,31.1,25.0,26.0,21.3,14.0,95,69,43,0.00,40.00,14,8,24,0.00
2013-3-8,32.0,28.0,25.0,28.0,25.7,24.0,95,91,76,0.00,40.00,15,7,23,0.00
2013-3-9,37.0,28.7,23.0,26.0,20.2,14.0,95,72,46,0.00,40.00,18,12,29,0.00
2013-3-10,44.0,30.3,16.0,19.0,13.3,8.0,82,52,28,0.00,40.00,10,4,15,0.00
2013-3-11,46.0,31.3,15.0,25.0,17.3,9.0,87,60,25,0.00,40.00,8,4,18,0.00
2013-3-12,52.0,34.7,19.0,27.0,21.4,16.0,92,64,29,0.00,40.00,7,2,13,0.00
2013-3-13,61.0,40.5,22.0,32.0,21.2,15.0,90,55,17,0.00,40.00,10,3,17,0.00
2013-3-14,64.0,47.0,25.0,26.0,21.6,16.0,84,42,17,0.00,40.00,14,5,25,0.00
2013-3-15,60.0,45.6,26.0,27.0,21.6,16.0,83,43,19,0.00,40.00,9,3,16,0.00
2013-3-16,53.0,41.5,27.0,25.0,18.3,6.0,75,44,16,0.00,40.00,13,4,23,0.00
2013-3-17,47.0,36.7,24.0,22.0,13.1,5.0,84,42,19,0.00,40.00,20,8,34,0.00
2013-3-18,47.0,32.8,17.0,20.0,12.0,7.0,85,47,20,0.00,40.00,12,4,24,0.00
2013-3-19,50.0,38.8,30.0,28.0,22.4,16.0,80,53,31,0.00,40.00,10,4,17,0.00
2013-3-20,53.0,44.2,34.0,32.0,23.4,19.0,69,44,31,0.00,40.00,15,7,30,0.00
2013-3-21,41.0,34.1,25.0,25.0,15.1,6.0,89,48,25,0.00,40.00,14,7,27,0.00
2013-3-22,33.0,23.5,12.0,16.0,7.8,1.0,84,54,28,0.00,40.00,15,6,27,0.00
2013-3-23,32.0,21.9,10.0,11.0,0.2,-10.0,84,43,18,0.00,40.00,10,6,20,0.00
2013-3-24,42.0,27.5,10.0,13.0,7.4,2.0,79,46,22,0.00,40.00,12,4,23,0.00
2013-3-25,52.0,38.0,25.0,17.0,12.8,9.0,61,38,21,0.00,40.00,11,6,25,0.00
2013-3-26,55.0,43.4,33.0,21.0,13.0,9.0,60,30,17,0.00,40.00,16,6,28,0.00
2013-3-27,56.0,42.5,27.0,21.0,17.4,7.0,74,41,15,0.00,40.00,13,6,24,0.00
2013-3-28,57.0,43.4,23.0,30.0,23.4,18.0,84,48,24,0.00,40.00,12,5,24,0.00
2013-3-29,57.0,41.6,26.0,31.0,25.8,22.0,89,58,27,0.00,40.00,13,4,22,0.00
2013-3-30,60.0,43.9,25.0,31.0,24.4,-99.9,89,52,24,0.00,40.00,9,3,18,0.00
2013-3-31,43.0,37.6,36.0,28.0,26.2,25.0,67,63,54,0.00,40.00,4,1,9,0.00
2013-4-4,52.0,52.0,52.0,24.0,24.0,24.0,33,33,33,0.00,40.00,8,8,16,0.00
2013-4-5,39.0,39.0,39.0,28.0,28.0,28.0,64,64,64,0.00,40.00,0,0,2,0.00
2013-4-11,42.0,42.0,42.0,17.0,17.0,17.0,36,36,36,0.00,40.00,5,5,9,0.00
2013-4-12,46.0,46.0,46.0,2.0,2.0,2.0,16,16,16,0.00,40.00,4,4,9,0.00
2013-4-18,31.0,31.0,31.0,15.0,15.0,15.0,51,51,51,0.00,40.00,0,0,0,0.00
2013-4-22,56.0,46.8,31.0,22.0,14.9,4.0,37,28,21,0.00,40.00,18,11,28,0.00
2013-4-23,50.0,34.1,22.0,13.0,6.5,-3.0,62,35,11,0.00,40.00,17,8,26,0.00
2013-4-24,52.0,39.9,26.0,12.0,7.7,1.0,49,27,14,0.00,40.00,12,8,22,0.00
2013-4-25,58.0,41.6,23.0,12.0,6.5,-2.0,57,28,9,0.00,40.00,12,6,26,0.00
2013-4-26,61.0,42.3,19.0,16.0,10.5,6.0,61,32,11,0.00,40.00,11,3,21,0.00
2013-4-27,66.0,46.7,25.0,25.0,18.6,14.0,71,39,14,0.00,40.00,10,3,40,0.00
2013-4-28,69.0,50.1,27.0,27.0,20.5,16.0,73,38,14,0.00,40.00,12,5,24,0.00
2013-4-29,70.0,52.7,27.0,28.0,22.9,19.0,75,36,18,0.00,40.00,16,6,32,0.00
2013-4-30,59.0,49.1,29.0,31.0,15.8,-10.0,76,30,11,0.00,40.00,17,10,29,0.00
2013-5-1,46.0,34.3,13.0,4.0,-2.6,-11.0,44,22,10,0.00,40.00,17,10,29,0.00
2013-5-2,57.0,40.8,22.0,6.0,2.5,-3.0,49,23,9,0.00,40.00,14,8,22,0.00
2013-5-3,65.0,45.9,18.0,9.0,3.8,-1.0,52,22,9,0.00,40.00,12,5,26,0.00
2013-5-4,57.0,44.9,34.0,20.0,13.9,6.0,50,29,18,0.00,40.00,11,6,29,0.00
2013-5-5,61.0,51.9,38.0,25.0,17.8,12.0,55,27,16,0.00,40.00,14,8,27,0.00
2013-5-6,54.0,42.8,29.0,35.0,27.0,18.0,88,56,34,0.00,40.00,17,6,29,0.00
2013-5-7,47.0,34.8,25.0,37.0,31.1,23.0,94,87,59,0.00,40.00,11,4,20,0.00
2013-5-8,55.0,39.4,21.0,38.0,30.0,19.0,96,72,34,0.00,40.00,14,3,28,0.00
2013-5-9,61.0,46.4,31.0,38.0,29.3,18.0,94,57,23,0.00,40.00,24,8,36,0.00
2013-5-10,64.0,48.7,27.0,31.0,24.6,-99.9,74,44,24,0.00,40.00,15,6,26,0.00
2013-5-11,71.0,51.9,29.0,31.0,22.2,-99.9,80,39,13,0.00,40.00,9,3,21,0.00
2013-5-12,76.0,55.4,31.0,30.0,23.3,19.0,70,35,13,0.00,40.00,10,3,21,0.00
2013-5-13,78.0,59.9,33.0,32.0,22.2,14.0,67,30,9,0.00,40.00,15,6,29,0.00
2013-5-14,76.0,61.5,37.0,30.0,20.1,15.0,51,23,11,0.00,40.00,15,5,30,0.00
2013-5-15,74.0,59.1,41.0,34.0,25.2,16.0,61,30,12,0.00,40.00,13,7,26,0.00
2013-5-16,67.0,48.9,31.0,31.0,6.3,-99.9,55,30,12,0.00,40.00,15,6,37,0.00
2013-5-17,53.0,44.4,31.0,44.0,33.8,-99.9,94,75,48,0.00,40.00,11,5,22,0.00
2013-5-18,57.0,43.0,24.0,39.0,26.1,21.0,95,58,25,0.00,40.00,11,5,27,0.00
2013-5-19,50.0,40.5,30.0,37.0,29.4,22.0,95,66,39,0.00,40.00,15,6,26,0.00
2013-5-20,61.0,42.2,21.0,28.0,23.4,17.0,86,52,25,0.00,40.00,13,5,26,0.00
2013-5-21,69.0,52.2,25.0,31.0,20.3,11.0,83,37,12,0.00,40.00,18,10,34,0.00
2013-5-22,69.0,54.3,34.0,24.0,16.2,9.0,54,23,11,0.00,40.00,21,10,47,0.00
2013-5-23,62.0,45.3,28.0,24.0,13.1,-2.0,73,34,9,0.00,40.00,22,11,39,0.00
2013-5-24,67.0,47.7,17.0,11.0,4.4,-2.0,47,20,9,0.00,40.00,16,7,41,0.00
2013-5-25,69.0,55.6,30.0,17.0,9.4,1.0,38,17,9,0.00,40.00,17,9,33,0.00
2013-5-26,68.0,56.8,38.0,18.0,12.8,3.0,33,18,11,0.00,40.00,18,9,31,0.00
2013-5-27,67.0,49.6,26.0,39.0,16.9,0.0,86,33,7,0.00,40.00,15,6,52,0.00
2013-5-28,48.0,41.2,32.0,40.0,34.1,27.0,93,76,52,0.00,40.00,16,6,28,0.00
2013-5-29,60.0,41.0,24.0,34.0,26.6,22.0,93,63,23,0.00,40.00,16,6,28,0.00
2013-6-4,50.0,50.0,50.0,-99.9,-99.9,-99.9,0,0,100,0.00,40.00,7,7,7,0.00
2013-6-5,50.0,50.0,50.0,-99.9,-99.9,-99.9,0,0,100,0.00,40.00,7,7,7,0.00
2013-6-6,50.0,50.0,50.0,-99.9,-99.9,-99.9,0,0,100,0.00,40.00,7,7,7,0.00
2013-6-7,50.0,50.0,50.0,-99.9,-99.9,-99.9,0,0,100,0.00,40.00,7,7,7,0.00
2013-6-8,50.0,50.0,50.0,-99.9,-99.9,-99.9,0,0,100,0.00,40.00,7,7,7,0.00
2013-6-9,50.0,50.0,50.0,-99.9,-99.9,-99.9,0,0,100,0.00,40.00,7,7,7,0.00
2013-6-10,50.0,50.0,50.0,-99.9,-99.9,-99.9,0,0,100,0.00,40.00,7,7,7,0.00
2013-6-12,50.0,50.0,50.0,-99.9,-99.9,-99.9,0,0,100,0.00,40.00,7,-33,7,0.00
2013-6-13,50.0,50.0,50.0,-99.9,-99.9,-99.9,0,0,100,0.00,40.00,7,-64,7,0.00
2013-6-14,50.0,50.0,50.0,-99.9,-99.9,-99.9,0,0,100,0.00,40.00,7,-127,7,0.00
2013-6-15,50.0,50.0,50.0,-99.9,-99.9,-99.9,0,0,100,0.00,40.00,7,-77,7,0.00
2013-6-16,50.0,50.0,50.0,-99.9,-99.9,-99.9,0,0,100,0.00,40.00,7,-137,7,0.00
2013-6-17,50.0,50.0,50.0,-99.9,-99.9,-99.9,0,0,100,0.00,40.00,7,-119,7,0.00
2013-6-18,50.0,50.0,50.0,-99.9,-99.9,-99.9,0,0,100,0.00,40.00,7,-137,7,0.00
2013-6-19,50.0,50.0,50.0,-99.9,-99.9,-99.9,0,0,100,0.00,40.00,7,-141,7,0.00
2013-6-20,50.0,50.0,50.0,-99.9,-99.9,-99.9,0,0,100,0.00,40.00,7,-141,7,0.00
2013-6-22,50.0,50.0,50.0,-99.9,-99.9,-99.9,0,0,100,0.00,40.00,7,-49,7,0.00
2013-6-23,50.0,50.0,50.0,-99.9,-99.9,-99.9,0,0,100,0.00,40.00,7,-40,7,0.00
2013-6-24,50.0,50.0,50.0,-99.9,-99.9,-99.9,0,0,100,0.00,40.00,7,-22,7,0.00
2013-7-31,82.0,76.5,63.0,38.0,32.6,28.0,32,21,14,0.00,40.00,15,11,34,0.00
2013-8-1,84.0,73.3,54.0,33.0,17.1,-99.9,39,16,5,0.00,40.00,21,-124,36,0.00
2013-8-2,70.0,62.1,45.0,15.0,13.8,10.0,24,16,12,0.00,40.00,8,-74,15,0.00
2013-8-5,82.0,74.4,63.0,25.0,22.5,19.0,22,15,10,0.00,40.00,11,-36,24,0.00
2013-8-6,84.0,72.3,50.0,24.0,16.4,11.0,23,12,9,0.00,40.00,10,-32,18,0.00
2013-8-12,79.0,71.1,64.0,13.0,10.9,8.0,11,10,7,0.00,40.00,7,6,17,0.00
2013-8-13,82.0,72.8,51.0,18.0,13.0,7.0,24,10,7,0.00,40.00,13,-6,25,0.00
2013-8-14,83.0,75.7,59.0,15.0,6.3,-99.9,16,8,5,0.00,40.00,14,-40,28,0.00
2013-8-15,82.0,69.6,46.0,26.0,5.2,-99.9,19,10,7,0.00,40.00,17,-8,30,0.00
2013-8-16,84.0,72.8,64.0,39.0,27.4,-99.9,39,21,12,0.00,40.00,13,-6,23,0.00
2013-8-17,84.0,74.1,61.0,49.0,34.6,-99.9,58,25,15,0.00,40.00,14,-6,27,1.00
2013-8-18,81.0,68.0,58.0,50.0,43.4,37.0,73,43,21,0.00,40.00,13,6,27,0.00
2013-8-19,80.0,62.3,53.0,48.0,36.6,-99.9,80,50,24,0.00,40.00,18,-5,29,0.00
2013-8-20,77.0,64.1,51.0,51.0,42.6,-99.9,68,51,29,0.00,40.00,15,-10,26,0.00
2013-8-21,80.0,64.9,46.0,50.0,42.4,35.0,87,50,20,0.00,40.00,14,5,25,0.00
2013-8-22,79.0,66.6,51.0,49.0,41.7,32.0,83,45,22,0.00,40.00,17,7,31,0.00
2013-8-23,75.0,66.2,50.0,45.0,41.8,39.0,71,42,28,0.00,40.00,15,7,26,0.00
2013-8-24,70.0,59.2,49.0,47.0,42.9,-99.9,76,57,40,0.00,40.00,21,7,38,0.00
2013-8-25,75.0,62.4,42.0,52.0,43.4,30.0,92,56,20,0.00,40.00,16,9,31,0.00
2013-8-26,68.0,59.6,52.0,51.0,47.7,44.0,93,67,42,0.00,40.00,13,8,22,0.00
2013-8-27,68.0,56.6,45.0,51.0,47.5,42.0,90,73,48,0.00,40.00,13,4,25,0.00
2013-8-28,77.0,69.0,57.0,51.0,46.5,40.0,67,46,31,0.00,40.00,15,7,28,0.00
2013-8-29,80.0,70.3,46.0,50.0,44.7,39.0,86,42,26,0.00,40.00,14,-23,24,0.00
2013-8-30,66.0,59.3,49.0,50.0,46.6,43.0,79,64,49,0.00,40.00,5,-24,9,0.00
2013-9-3,70.0,60.4,55.0,52.0,50.7,47.0,86,72,46,0.00,40.00,15,-72,25,1.00
2013-9-4,77.0,61.8,48.0,55.0,49.8,46.0,100,69,35,0.00,40.00,14,-38,26,6.00
2013-9-5,76.0,63.1,50.0,54.0,49.1,43.0,100,66,31,0.00,40.00,16,-32,29,0.00
2013-9-6,75.0,64.8,51.0,50.0,46.4,41.0,85,53,36,0.00,40.00,14,-22,27,0.00
2013-9-7,66.0,58.0,53.0,56.0,48.9,-99.9,92,75,54,0.00,40.00,10,-31,17,3.00
2013-9-8,72.0,57.9,47.0,53.0,47.8,36.0,100,75,27,0.00,40.00,7,-11,12,0.00
2013-9-9,73.0,58.7,42.0,48.0,39.8,27.0,100,57,19,0.00,40.00,11,4,19,0.00
2013-9-10,67.0,57.3,44.0,47.0,39.3,35.0,79,53,32,0.00,40.00,14,7,23,4.00
2013-9-11,54.0,51.1,48.0,52.0,48.9,44.0,100,92,70,0.00,40.00,7,2,12,14.00
2013-9-12,57.0,52.1,49.0,53.0,50.6,49.0,100,95,77,0.00,40.00,7,3,12,5.00
2013-9-13,64.0,53.2,48.0,53.0,27.8,-99.9,100,75,51,0.00,40.00,12,-10,21,4.00
2013-9-14,64.0,52.5,40.0,52.0,44.6,-99.9,100,79,50,0.00,40.00,13,3,20,1.00
2013-9-15,72.0,56.5,43.0,48.0,44.8,43.0,100,71,36,0.00,40.00,11,4,20,0.00
2013-9-16,75.0,65.3,50.0,47.0,41.5,36.0,78,44,26,0.00,40.00,14,8,26,0.00
2013-9-17,75.0,63.8,51.0,42.0,29.7,9.0,69,33,9,0.00,40.00,24,12,43,0.00
2013-9-18,52.0,45.6,37.0,28.0,25.8,23.0,64,46,34,0.00,40.00,7,3,13,0.00
2013-9-19,67.0,50.3,37.0,33.0,29.1,26.0,71,48,23,0.00,40.00,12,7,19,0.00
2013-9-20,71.0,56.0,33.0,31.0,27.2,20.0,79,38,16,0.00,40.00,17,7,32,0.00
2013-9-21,69.0,57.6,45.0,31.0,21.0,-99.9,51,27,14,0.00,40.00,26,12,49,0.00
2013-9-22,54.0,46.2,37.0,35.0,30.3,19.0,80,56,25,0.00,40.00,15,-16,27,0.00
2013-9-23,65.0,49.1,25.0,31.0,25.7,20.0,91,48,20,0.00,40.00,10,4,15,0.00
2013-9-24,68.0,59.5,37.0,23.0,21.9,20.0,56,24,17,0.00,40.00,19,12,34,0.00
2013-9-25,56.0,46.2,34.0,26.0,21.3,12.0,70,38,23,0.00,40.00,15,-4,30,0.00
2013-9-26,39.0,33.0,29.0,28.0,25.2,21.0,88,73,57,0.00,40.00,13,6,21,0.00
2013-9-27,46.0,36.3,24.0,30.0,24.6,17.0,93,66,32,0.00,40.00,11,6,20,0.00
2013-9-28,59.0,46.3,19.0,23.0,17.1,-99.9,86,37,21,0.00,40.00,13,7,24,0.00
2013-9-29,62.0,52.7,40.0,19.0,16.1,13.0,36,24,18,0.00,40.00,17,11,31,0.00
2013-9-30,69.0,56.6,44.0,25.0,18.4,13.0,39,23,16,0.00,40.00,13,-6,24,0.00
2013-10-1,65.0,58.2,53.0,23.0,22.0,20.0,30,25,18,0.00,40.00,10,6,22,0.00
2013-10-2,64.0,53.6,35.0,33.0,27.1,22.0,64,37,26,0.00,40.00,18,8,33,0.00
2013-10-3,42.0,36.3,23.0,18.0,13.4,9.0,62,39,27,0.00,40.00,19,-21,35,0.00
2013-10-4,43.0,33.0,23.0,20.0,17.0,11.0,80,54,29,0.00,40.00,17,-3,28,0.00
2013-10-5,56.0,36.2,20.0,19.0,13.5,3.0,74,45,12,0.00,40.00,9,6,17,0.00
2013-10-6,68.0,50.7,26.0,15.0,10.2,6.0,48,23,10,0.00,40.00,12,-10,23,0.00
2013-10-7,65.0,54.2,33.0,19.0,13.5,8.0,43,21,11,0.00,40.00,15,8,28,0.00
2013-10-8,59.0,47.9,28.0,15.0,11.0,8.0,46,24,14,0.00,40.00,9,5,18,0.00
2013-10-9,50.0,39.7,33.0,33.0,22.3,10.0,99,55,24,0.00,40.00,16,7,34,1.00
2013-10-10,44.0,36.2,30.0,37.0,32.9,30.0,100,88,65,0.00,40.00,10,-9,19,0.00
2013-10-11,51.0,37.2,28.0,36.0,27.4,17.0,100,75,28,0.00,40.00,9,3,21,0.00
2013-10-12,53.0,41.6,27.0,31.0,25.2,-99.9,89,57,34,0.00,40.00,13,-6,26,0.00
2013-10-13,43.0,41.9,41.0,28.0,27.7,27.0,58,57,55,0.00,40.00,11,9,20,0.00
2013-10-14,44.0,37.7,25.0,28.0,24.1,20.0,88,60,39,0.00,40.00,8,4,13,0.00
2013-10-15,40.0,32.2,25.0,30.0,23.5,19.0,100,72,45,0.00,40.00,15,8,25,0.00
2013-10-21,59.0,46.6,27.0,23.0,19.2,14.0,64,37,18,0.00,40.00,9,6,16,0.00
2013-10-22,63.0,49.3,24.0,24.0,19.3,14.0,74,35,15,0.00,40.00,6,3,11,0.00
2013-10-23,62.0,56.8,30.0,21.0,16.8,13.0,65,22,15,0.00,40.00,11,6,20,0.00
2013-10-24,63.0,49.9,26.0,22.0,16.7,13.0,65,31,15,0.00,40.00,8,4,15,0.00
2013-10-25,62.0,56.9,32.0,24.0,17.0,12.0,64,22,14,0.00,40.00,9,5,14,0.00
2013-10-26,62.0,51.1,30.0,22.0,13.7,-99.9,61,27,14,0.00,40.00,9,5,18,0.00
2013-10-27,58.0,51.8,29.0,20.0,16.0,13.0,57,25,17,0.00,40.00,16,12,35,0.00
2013-10-28,48.0,33.2,26.0,32.0,22.5,-99.9,100,73,25,0.00,40.00,15,10,27,2.00
2013-10-29,35.0,28.8,23.0,29.0,25.6,21.0,100,88,70,0.00,40.00,11,6,19,0.00
2013-10-31,43.0,35.6,20.0,29.0,24.5,17.0,88,66,44,0.00,40.00,6,4,11,0.00
2013-11-1,53.0,37.1,23.0,31.0,25.9,20.0,100,69,28,0.00,40.00,7,4,12,0.00
2013-11-2,53.0,43.1,23.0,25.0,18.3,11.0,86,43,18,0.00,40.00,15,8,28,0.00
2013-11-3,40.0,30.5,23.0,27.0,15.5,5.0,82,55,30,0.00,40.00,11,-7,19,0.00
2013-11-7,50.0,42.8,25.0,27.0,19.7,15.0,83,42,30,0.00,40.00,15,8,26,0.00
2013-11-8,55.0,44.4,27.0,20.0,17.5,16.0,71,36,23,0.00,40.00,10,-16,18,0.00
2013-11-9,55.0,46.3,27.0,24.0,12.1,-99.9,76,28,20,0.00,40.00,12,7,18,0.00
2013-11-10,57.0,48.6,19.0,20.0,8.8,0.0,79,24,11,0.00,40.00,13,7,20,0.00
2013-11-11,62.0,56.1,21.0,19.0,9.7,6.0,67,18,11,0.00,40.00,7,4,13,0.00
2013-11-12,59.0,53.4,36.0,20.0,12.8,10.0,51,21,15,0.00,40.00,8,4,13,0.00
2013-11-13,58.0,48.1,30.0,25.0,17.6,12.0,63,34,17,0.00,40.00,10,4,17,0.00
2013-11-14,50.0,44.5,35.0,17.0,15.4,13.0,44,31,22,0.00,40.00,19,10,36,0.00
2013-11-15,37.0,30.0,13.0,26.0,18.9,9.0,83,64,43,0.00,40.00,9,4,19,0.00
2013-11-16,42.0,32.3,14.0,19.0,12.2,-99.9,84,47,36,0.00,40.00,15,8,27,0.00
2013-11-17,48.0,36.8,21.0,23.0,18.7,14.0,79,50,30,0.00,40.00,12,6,20,0.00
2013-11-18,51.0,42.3,23.0,29.0,24.8,16.0,82,52,24,0.00,40.00,15,9,27,0.00
2013-11-19,45.0,38.5,20.0,32.0,27.8,17.0,89,66,48,0.00,40.00,11,6,18,0.00
2013-11-20,39.0,32.9,23.0,35.0,-5.2,-99.9,100,66,80,0.00,40.00,11,4,16,0.00
2013-11-21,32.0,24.5,20.0,28.0,-14.1,-99.9,100,62,73,0.00,40.00,0,0,0,0.00
2013-11-22,27.0,22.9,17.0,16.0,8.5,3.0,79,55,38,0.00,40.00,21,8,29,0.00
2013-11-23,30.0,24.8,20.0,16.0,7.5,-99.9,66,50,37,0.00,40.00,14,9,22,0.00
2013-11-24,37.0,27.7,16.0,21.0,16.9,11.0,86,65,43,0.00,40.00,9,5,14,0.00
2013-11-25,43.0,31.5,11.0,16.0,12.0,6.0,83,47,26,0.00,40.00,14,7,20,0.00
2013-11-26,51.0,34.6,17.0,22.0,15.6,10.0,75,49,24,0.00,40.00,8,4,10,0.00
2013-11-27,43.0,34.9,20.0,23.0,20.7,17.0,87,58,42,0.00,40.00,11,4,17,0.00
2013-11-28,39.0,30.5,18.0,27.0,23.1,16.0,91,75,56,0.00,40.00,9,3,13,0.00
2013-11-29,43.0,35.7,15.0,27.0,21.8,12.0,92,59,41,0.00,40.00,7,3,13,0.00
2013-11-30,47.0,36.8,19.0,28.0,16.9,-99.9,92,51,30,0.00,40.00,5,2,12,0.00
2013-12-1,46.0,38.6,17.0,26.0,20.0,14.0,91,50,34,0.00,40.00,9,5,15,0.00
2013-12-4,13.0,1.6,-10.0,3.0,-5.0,-15.0,86,74,56,0.00,40.00,11,3,17,0.00
2013-12-5,9.0,3.5,-24.0,1.0,-3.4,-31.0,83,73,67,0.00,40.00,7,4,11,0.00
2013-12-9,19.0,14.0,-5.0,-5.0,-9.7,-13.0,74,35,24,0.00,40.00,7,4,12,0.00
2013-12-10,35.0,27.3,2.0,11.0,7.6,-4.0,74,45,30,0.00,40.00,10,4,13,0.00
2013-12-11,38.0,20.3,10.0,15.0,8.3,3.0,82,61,35,0.00,40.00,9,5,12,0.00
2013-12-12,43.0,40.7,36.0,12.0,9.5,5.0,36,27,21,0.00,40.00,10,5,14,0.00
2013-12-13,35.0,26.6,13.0,19.0,12.4,4.0,77,57,34,0.00,40.00,12,7,18,0.00
2013-12-14,39.0,23.3,5.0,18.0,12.0,-99.9,90,67,32,0.00,40.00,10,5,14,0.00
2013-12-15,52.0,44.3,12.0,18.0,12.8,4.0,72,30,19,0.00,40.00,6,3,9,0.00
2013-12-16,51.0,44.6,20.0,18.0,13.7,7.0,77,32,18,0.00,40.00,7,4,10,0.00
2013-12-17,51.0,41.5,19.0,20.0,13.9,9.0,75,36,19,0.00,40.00,10,4,14,0.00
2013-12-18,45.0,37.2,33.0,35.0,26.9,-99.9,100,74,33,0.00,40.00,16,8,34,0.00
2013-12-19,36.0,26.2,17.0,32.0,0.0,-99.9,100,74,77,0.00,40.00,15,8,24,0.00
2013-12-20,23.0,17.6,13.0,16.0,11.5,3.0,91,77,48,0.00,40.00,11,6,16,0.00
2013-12-21,32.0,25.3,14.0,26.0,18.9,-99.9,93,80,68,0.00,40.00,15,5,25,0.00
2013-12-22,32.0,27.5,8.0,26.0,22.2,5.0,93,81,69,0.00,40.00,9,3,17,0.00
2013-12-23,42.0,31.7,13.0,28.0,24.3,10.0,93,75,55,0.00,40.00,7,3,11,0.00
2013-12-24,38.0,28.7,16.0,24.0,20.0,12.0,90,71,49,0.00,40.00,12,4,19,0.00
2013-12-25,44.0,28.2,12.0,15.0,5.9,-1.0,80,43,15,0.00,40.00,12,6,15,0.00
2013-12-26,49.0,41.8,18.0,8.0,3.2,-3.0,53,23,11,0.00,40.00,6,2,9,0.00
2013-12-27,51.0,42.2,22.0,17.0,11.6,6.0,65,31,16,0.00,40.00,6,3,10,0.00
2013-12-28,42.0,29.2,19.0,16.0,10.0,-99.9,70,49,21,0.00,40.00,16,6,27,0.00
2013-12-29,36.0,22.5,11.0,9.0,5.2,-2.0,72,51,21,0.00,40.00,11,6,15,0.00
2013-12-30,49.0,34.0,11.0,21.0,10.8,-6.0,80,40,25,0.00,40.00,6,2,12,0.00
2013-12-31,46.0,34.0,19.0,20.0,14.2,8.0,72,47,23,0.00,40.00,9,4,15,0.00
2014-1-1,44.0,29.1,14.0,22.0,17.2,10.0,88,64,35,0.00,40.00,7,2,10,0.00
2014-1-2,47.0,34.5,15.0,24.0,16.6,12.0,90,53,27,0.00,40.00,6,3,10,0.00